Time,TemperatureF,DewpointF,PressureIn,WindDirection,WindDirectionDegrees,WindSpeedMPH,WindSpeedGustMPH,Humidity,HourlyPrecipIn,Conditions,Clouds,dailyrainin,SolarRadiationWatts/m^2,SoftwareType,DateUTC
2013-02-11 00:21:00,43.0,26.0,30.05,NW,312,7.0,11.0,51,-99.99,,,-99.99,0.000000,,2013-02-11 08:21:00,
2013-02-11 00:31:00,43.0,26.0,30.05,NW,312,7.0,11.0,51,-99.99,,,-99.99,0.000000,,2013-02-11 08:31:00,
2013-02-11 00:40:00,43.0,25.0,30.06,NNE,16,6.0,10.0,48,-99.99,,,-99.99,0.000000,,2013-02-11 08:40:00,
2013-02-11 01:40:00,44.0,23.0,30.07,ENE,75,6.0,10.0,44,-99.99,,,-99.99,0.000000,,2013-02-11 09:40:00,
2013-02-11 02:21:00,44.0,23.0,30.07,ENE,75,6.0,10.0,44,-99.99,,,-99.99,0.000000,,2013-02-11 10:21:00,
2013-02-11 02:31:00,44.0,23.0,30.07,ENE,75,6.0,10.0,44,-99.99,,,-99.99,0.000000,,2013-02-11 10:31:00,
2013-02-11 02:40:00,44.0,24.0,30.07,NNE,25,5.0,6.0,45,-99.99,,,-99.99,0.000000,,2013-02-11 10:40:00,
2013-02-11 03:22:00,44.0,24.0,30.07,NNE,25,5.0,6.0,45,-99.99,,,-99.99,0.000000,,2013-02-11 11:22:00,
2013-02-11 03:32:00,44.0,24.0,30.07,NNE,25,5.0,6.0,45,-99.99,,,-99.99,0.000000,,2013-02-11 11:32:00,
2013-02-11 03:40:00,43.0,24.0,30.06,NNW,338,6.0,8.0,46,-99.99,,,-99.99,0.000000,,2013-02-11 11:40:00,
2013-02-11 04:22:00,43.0,24.0,30.06,NNW,338,6.0,8.0,46,-99.99,,,-99.99,0.000000,,2013-02-11 12:22:00,
2013-02-11 04:31:00,43.0,24.0,30.06,NNW,338,6.0,8.0,46,-99.99,,,-99.99,0.000000,,2013-02-11 12:31:00,
2013-02-11 04:40:00,44.0,24.0,30.06,NNE,33,5.0,6.0,44,-99.99,,,-99.99,0.000000,,2013-02-11 12:40:00,
2013-02-11 05:21:00,44.0,24.0,30.06,NNE,33,5.0,6.0,44,-99.99,,,-99.99,0.000000,,2013-02-11 13:21:00,
2013-02-11 05:32:00,44.0,24.0,30.06,NNE,33,5.0,6.0,44,-99.99,,,-99.99,0.000000,,2013-02-11 13:32:00,
2013-02-11 05:40:00,41.0,29.0,30.08,SE,145,5.0,7.0,61,-99.99,,,-99.99,0.000000,,2013-02-11 13:40:00,
2013-02-11 06:21:00,41.0,29.0,30.08,SE,145,5.0,7.0,61,-99.99,,,-99.99,0.000000,,2013-02-11 14:21:00,
2013-02-11 06:32:00,41.0,29.0,30.08,SE,145,5.0,7.0,61,-99.99,,,-99.99,0.000000,,2013-02-11 14:32:00,
2013-02-11 06:40:00,41.0,27.0,30.09,East,93,5.0,7.0,59,-99.99,,,-99.99,0.000000,,2013-02-11 14:40:00,
2013-02-11 07:22:00,41.0,27.0,30.09,East,93,5.0,7.0,59,-99.99,,,-99.99,0.000000,,2013-02-11 15:22:00,
2013-02-11 07:32:00,41.0,27.0,30.09,East,93,5.0,7.0,59,-99.99,,,-99.99,0.000000,,2013-02-11 15:32:00,
2013-02-11 07:40:00,43.0,26.0,30.11,SSW,196,1.0,2.0,52,-99.99,,,-99.99,54.000000,,2013-02-11 15:40:00,
2013-02-11 08:22:00,43.0,26.0,30.11,SSW,196,1.0,2.0,52,-99.99,,,-99.99,54.000000,,2013-02-11 16:22:00,
2013-02-11 08:32:00,43.0,26.0,30.11,SSW,196,1.0,2.0,52,-99.99,,,-99.99,54.000000,,2013-02-11 16:32:00,
2013-02-11 09:40:00,47.0,29.0,30.15,WSW,242,2.0,4.0,49,-99.99,,,-99.99,523.000000,,2013-02-11 17:40:00,
2013-02-11 10:21:00,47.0,29.0,30.15,WSW,242,2.0,4.0,49,-99.99,,,-99.99,523.000000,,2013-02-11 18:21:00,
2013-02-11 10:32:00,47.0,29.0,30.15,WSW,242,2.0,4.0,49,-99.99,,,-99.99,523.000000,,2013-02-11 18:32:00,
2013-02-11 10:40:00,46.0,34.0,30.17,West,269,4.0,7.0,63,-99.99,,,-99.99,658.000000,,2013-02-11 18:40:00,
2013-02-11 11:21:00,46.0,34.0,30.17,West,269,4.0,7.0,63,-99.99,,,-99.99,658.000000,,2013-02-11 19:21:00,
2013-02-11 11:31:00,46.0,34.0,30.17,West,269,4.0,7.0,63,-99.99,,,-99.99,658.000000,,2013-02-11 19:31:00,
2013-02-11 11:40:00,46.0,39.0,30.17,WSW,257,5.0,9.0,77,-99.99,,,-99.99,731.000000,,2013-02-11 19:40:00,
2013-02-11 12:21:00,46.0,39.0,30.17,WSW,257,5.0,9.0,77,-99.99,,,-99.99,731.000000,,2013-02-11 20:21:00,
2013-02-11 12:31:00,46.0,39.0,30.17,WSW,257,5.0,9.0,77,-99.99,,,-99.99,731.000000,,2013-02-11 20:31:00,
2013-02-11 12:40:00,49.0,39.0,30.17,SSW,207,3.0,7.0,70,-99.99,,,-99.99,678.000000,,2013-02-11 20:40:00,
2013-02-11 13:21:00,49.0,39.0,30.17,SSW,207,3.0,7.0,70,-99.99,,,-99.99,678.000000,,2013-02-11 21:21:00,
2013-02-11 13:31:00,49.0,39.0,30.17,SSW,207,3.0,7.0,70,-99.99,,,-99.99,678.000000,,2013-02-11 21:31:00,
2013-02-11 13:40:00,46.0,40.0,30.16,West,259,4.0,7.0,81,-99.99,,,-99.99,301.000000,,2013-02-11 21:40:00,
2013-02-11 14:21:00,46.0,40.0,30.16,West,259,4.0,7.0,81,-99.99,,,-99.99,301.000000,,2013-02-11 22:21:00,
2013-02-11 14:32:00,46.0,40.0,30.16,West,259,4.0,7.0,81,-99.99,,,-99.99,301.000000,,2013-02-11 22:32:00,
2013-02-11 14:40:00,48.0,37.0,30.16,West,275,5.0,8.0,66,-99.99,,,-99.99,559.000000,,2013-02-11 22:40:00,
2013-02-11 15:21:00,48.0,37.0,30.16,West,275,5.0,8.0,66,-99.99,,,-99.99,559.000000,,2013-02-11 23:21:00,
2013-02-11 15:31:00,48.0,37.0,30.16,West,275,5.0,8.0,66,-99.99,,,-99.99,559.000000,,2013-02-11 23:31:00,
2013-02-11 15:40:00,47.0,35.0,30.16,West,273,5.0,8.0,61,-99.99,,,-99.99,385.000000,,2013-02-11 23:40:00,
2013-02-11 16:32:00,47.0,35.0,30.16,West,273,5.0,8.0,61,-99.99,,,-99.99,385.000000,,2013-02-12 00:32:00,
2013-02-11 16:40:00,47.0,36.0,30.17,West,269,3.0,5.0,64,-99.99,,,-99.99,188.000000,,2013-02-12 00:40:00,
2013-02-11 17:21:00,47.0,36.0,30.17,West,269,3.0,5.0,64,-99.99,,,-99.99,188.000000,,2013-02-12 01:21:00,
2013-02-11 17:31:00,47.0,36.0,30.17,West,269,3.0,5.0,64,-99.99,,,-99.99,188.000000,,2013-02-12 01:31:00,
2013-02-11 17:40:00,44.0,36.0,30.18,WNW,292,2.0,3.0,73,-99.99,,,-99.99,23.000000,,2013-02-12 01:40:00,
2013-02-11 18:21:00,44.0,36.0,30.18,WNW,292,2.0,3.0,73,-99.99,,,-99.99,23.000000,,2013-02-12 02:21:00,
2013-02-11 18:31:00,44.0,36.0,30.18,WNW,292,2.0,3.0,73,-99.99,,,-99.99,23.000000,,2013-02-12 02:31:00,
2013-02-11 18:40:00,42.0,36.0,30.19,NE,39,2.0,5.0,78,-99.99,,,-99.99,0.000000,,2013-02-12 02:40:00,
2013-02-11 19:21:00,42.0,36.0,30.19,NE,39,2.0,5.0,78,-99.99,,,-99.99,0.000000,,2013-02-12 03:21:00,
2013-02-11 19:31:00,42.0,36.0,30.19,NE,39,2.0,5.0,78,-99.99,,,-99.99,0.000000,,2013-02-12 03:31:00,
2013-02-11 19:40:00,43.0,35.0,30.21,NNW,330,5.0,6.0,74,-99.99,,,-99.99,0.000000,,2013-02-12 03:40:00,
2013-02-11 20:21:00,43.0,35.0,30.21,NNW,330,5.0,6.0,74,-99.99,,,-99.99,0.000000,,2013-02-12 04:21:00,
2013-02-11 20:31:00,43.0,35.0,30.21,NNW,330,5.0,6.0,74,-99.99,,,-99.99,0.000000,,2013-02-12 04:31:00,
2013-02-11 20:40:00,45.0,23.0,30.22,NNE,33,7.0,9.0,43,-99.99,,,-99.99,0.000000,,2013-02-12 04:40:00,
2013-02-11 21:21:00,45.0,23.0,30.22,NNE,33,7.0,9.0,43,-99.99,,,-99.99,0.000000,,2013-02-12 05:21:00,
2013-02-11 21:31:00,45.0,23.0,30.22,NNE,33,7.0,9.0,43,-99.99,,,-99.99,0.000000,,2013-02-12 05:31:00,
2013-02-11 21:40:00,46.0,24.0,30.23,East,89,4.0,5.0,41,-99.99,,,-99.99,0.000000,,2013-02-12 05:40:00,
2013-02-11 22:12:00,46.0,24.0,30.23,East,89,4.0,5.0,41,-99.99,,,-99.99,0.000000,,2013-02-12 06:12:00,
2013-02-11 22:21:00,46.0,24.0,30.23,East,89,4.0,5.0,41,-99.99,,,-99.99,0.000000,,2013-02-12 06:21:00,
2013-02-11 22:31:00,46.0,24.0,30.23,East,89,4.0,5.0,41,-99.99,,,-99.99,0.000000,,2013-02-12 06:31:00,
2013-02-11 22:40:00,45.0,23.0,30.24,ENE,68,3.0,4.0,41,-99.99,,,-99.99,0.000000,,2013-02-12 06:40:00,
2013-02-11 23:21:00,45.0,23.0,30.24,ENE,68,3.0,4.0,41,-99.99,,,-99.99,0.000000,,2013-02-12 07:21:00,
2013-02-11 23:31:00,45.0,23.0,30.24,ENE,68,3.0,4.0,41,-99.99,,,-99.99,0.000000,,2013-02-12 07:31:00,
2013-02-11 23:40:00,47.0,25.0,30.24,SE,133,2.0,4.0,42,-99.99,,,-99.99,0.000000,,2013-02-12 07:40:00,